ELY88 VTSP-LLBG

Flight info

Callsign ELY88
Flight time N/A
Altitude 32000
Route UBNEN1A UBNEN R203 SAPAM L645 MAPSO P628 PPB P761 MMV L875 VUTAS UT383 HARGA UW885 DWA DCT XADOX DCT SETIT UR780 ASM G650 RASKA T513 JDW L677 WEJ M449 MUNRA DCT QAA DCT OSAMA N134 SALAM
Aircraft B772/H-SDE2E3FGHIJ4J5LM1OP2RVWXY/LB1D1

Departure

Time 2026-05-08 21:35
Airport Phuket International Airport (VTSP)

Arrival

Time N/A
Airport Ben Gurion International Airport (LLBG)
Time Latitude Longitude Altitude Speed Heading
2026-05-08 21:18 8.10843 98.30528 53 ft 0 kts 104°
2026-05-08 21:25 8.10845 98.30523 47 ft 4 kts 104°
2026-05-08 21:26 8.10851 98.30497 53 ft 4 kts 104°
2026-05-08 21:26 8.10857 98.30474 53 ft 4 kts 112°
2026-05-08 21:26 8.10868 98.30456 53 ft 4 kts 154°
2026-05-08 21:26 8.10888 98.30453 51 ft 4 kts 193°
2026-05-08 21:27 8.10910 98.30458 53 ft 0 kts 194°
2026-05-08 21:27 8.10910 98.30459 53 ft 0 kts 194°
2026-05-08 21:30 8.10906 98.30458 53 ft 3 kts 194°
2026-05-08 21:30 8.10846 98.30442 49 ft 13 kts 194°
2026-05-08 21:31 8.10752 98.30416 51 ft 14 kts 203°
2026-05-08 21:31 8.10758 98.30368 47 ft 7 kts 314°
2026-05-08 21:31 8.10805 98.30357 48 ft 8 kts
2026-05-08 21:31 8.10858 98.30368 53 ft 8 kts 13°
2026-05-08 21:32 8.10911 98.30381 48 ft 8 kts 13°
2026-05-08 21:32 8.10964 98.30395 49 ft 8 kts 17°
2026-05-08 21:32 8.11017 98.30401 48 ft 8 kts 337°
2026-05-08 21:32 8.11057 98.30363 51 ft 8 kts 326°
2026-05-08 21:33 8.11108 98.30346 49 ft 8 kts 352°
2026-05-08 21:33 8.11163 98.30342 54 ft 8 kts 356°
2026-05-08 21:33 8.11198 98.30376 49 ft 8 kts 79°
2026-05-08 21:33 8.11201 98.30391 53 ft 0 kts 81°
2026-05-08 21:34 8.11205 98.30428 47 ft 21 kts 83°
2026-05-08 21:34 8.11244 98.30831 52 ft 95 kts 85°
2026-05-08 21:35 8.11328 98.31730 54 ft 161 kts 84°
2026-05-08 21:35 8.11449 98.33042 200 ft 203 kts 85°
2026-05-08 21:35 8.11549 98.34394 1264 ft 187 kts 84°
2026-05-08 21:35 8.11688 98.35762 1934 ft 203 kts 83°
2026-05-08 21:36 8.11855 98.37172 2578 ft 205 kts 82°
2026-05-08 21:36 8.11993 98.38608 2938 ft 207 kts 83°
2026-05-08 21:36 8.12181 98.40040 3323 ft 204 kts 81°
2026-05-08 21:36 8.12202 98.41512 3331 ft 221 kts 105°
2026-05-08 21:37 8.11384 98.42851 3461 ft 234 kts 138°
2026-05-08 21:37 8.09897 98.43635 3568 ft 254 kts 167°
2026-05-08 21:37 8.08097 98.43572 3808 ft 269 kts 197°
2026-05-08 21:37 8.06475 98.42588 4168 ft 280 kts 226°
2026-05-08 21:38 8.05486 98.40900 4600 ft 285 kts 255°
2026-05-08 21:38 8.05270 98.38909 5011 ft 288 kts 270°
2026-05-08 21:38 8.05368 98.36857 4990 ft 294 kts 275°
2026-05-08 21:38 8.05543 98.34817 5125 ft 291 kts 275°
2026-05-08 21:39 8.05725 98.32780 5620 ft 292 kts 275°
2026-05-08 21:39 8.05892 98.30731 6148 ft 294 kts 275°
2026-05-08 21:39 8.06045 98.28666 6660 ft 296 kts 274°
2026-05-08 21:39 8.06188 98.26588 7112 ft 299 kts 274°
2026-05-08 21:40 8.06330 98.24484 7597 ft 301 kts 274°
2026-05-08 21:40 8.06464 98.22372 8082 ft 303 kts 274°
2026-05-08 21:40 8.06597 98.20237 8539 ft 305 kts 273°
2026-05-08 21:41 8.06852 98.15928 9432 ft 310 kts 273°
2026-05-08 21:41 8.06979 98.13753 9911 ft 311 kts 274°
2026-05-08 21:41 8.07106 98.11563 10272 ft 317 kts 274°
2026-05-08 21:41 8.07238 98.09285 10394 ft 333 kts 274°
2026-05-08 21:42 8.07376 98.06903 10526 ft 348 kts 274°
2026-05-08 21:42 8.07519 98.04406 10646 ft 364 kts 274°
2026-05-08 21:42 8.07669 98.01799 10795 ft 379 kts 273°
2026-05-08 21:42 8.07823 97.99103 11093 ft 390 kts 274°
2026-05-08 21:43 8.07981 97.96347 11527 ft 396 kts 274°
2026-05-08 21:43 8.08141 97.93566 12167 ft 396 kts 274°
2026-05-08 21:43 8.08300 97.90822 12759 ft 398 kts 274°
2026-05-08 21:43 8.08462 97.87983 13282 ft 402 kts 273°
2026-05-08 21:44 8.08619 97.85193 13763 ft 406 kts 273°
2026-05-08 21:44 8.08784 97.82335 14278 ft 410 kts 273°
2026-05-08 21:44 8.08902 97.79446 14800 ft 413 kts 269°
2026-05-08 21:44 8.08792 97.76542 15330 ft 416 kts 266°
2026-05-08 21:45 8.08617 97.73614 15847 ft 419 kts 266°
2026-05-08 21:45 8.08437 97.70670 16375 ft 422 kts 266°
2026-05-08 21:45 8.08264 97.67701 16892 ft 426 kts 266°
2026-05-08 21:45 8.08099 97.64702 17392 ft 430 kts 266°
2026-05-08 21:46 8.07943 97.61677 17907 ft 433 kts 266°
2026-05-08 21:46 8.07787 97.58634 18427 ft 436 kts 266°
2026-05-08 21:46 8.07630 97.55571 18923 ft 439 kts 266°
2026-05-08 21:46 8.07468 97.52483 19389 ft 442 kts 266°
2026-05-08 21:47 8.07301 97.49372 19851 ft 446 kts 266°
2026-05-08 21:47 8.07133 97.46234 20317 ft 449 kts 266°
2026-05-08 21:47 8.06961 97.43077 20775 ft 452 kts 266°
2026-05-08 21:47 8.06789 97.39902 21227 ft 455 kts 266°
2026-05-08 21:48 8.06617 97.36707 21683 ft 457 kts 266°
2026-05-08 21:48 8.06444 97.33490 22103 ft 460 kts 266°
2026-05-08 21:48 8.06268 97.30255 22487 ft 463 kts 266°
2026-05-08 21:48 8.06093 97.27008 22885 ft 464 kts 266°
2026-05-08 21:49 8.06158 97.23750 23205 ft 467 kts 277°
2026-05-08 21:49 8.06864 97.20546 23517 ft 470 kts 288°
2026-05-08 21:49 8.08114 97.17500 23877 ft 472 kts 299°
2026-05-08 21:49 8.09789 97.14662 24183 ft 472 kts 302°
2026-05-08 21:50 8.11535 97.11834 24447 ft 476 kts 302°
2026-05-08 21:50 8.13297 97.08997 24749 ft 478 kts 302°
2026-05-08 21:50 8.15062 97.06141 25076 ft 480 kts 302°
2026-05-08 21:50 8.16816 97.03276 25423 ft 481 kts 302°
2026-05-08 21:51 8.18564 97.00395 25732 ft 482 kts 301°
2026-05-08 21:51 8.20310 96.97499 25996 ft 484 kts 301°
2026-05-08 21:51 8.22061 96.94583 26246 ft 486 kts 301°
2026-05-08 21:51 8.23817 96.91659 26489 ft 488 kts 301°
2026-05-08 21:52 8.25579 96.88724 26717 ft 490 kts 301°
2026-05-08 21:52 8.27351 96.85770 26932 ft 493 kts 301°
2026-05-08 21:52 8.29128 96.82807 27181 ft 494 kts 301°
2026-05-08 21:52 8.30910 96.79836 27423 ft 495 kts 301°
2026-05-08 21:53 8.32698 96.76856 27640 ft 497 kts 301°
2026-05-08 21:53 8.34493 96.73869 27870 ft 498 kts 302°
2026-05-08 21:53 8.36287 96.70880 28090 ft 499 kts 302°
2026-05-08 21:53 8.38086 96.67881 28346 ft 499 kts 302°
2026-05-08 21:54 8.39886 96.64880 28617 ft 499 kts 302°
2026-05-08 21:54 8.41683 96.61881 28884 ft 499 kts 302°
2026-05-08 21:54 8.43483 96.58877 29119 ft 500 kts 302°
2026-05-08 21:54 8.45284 96.55874 29349 ft 500 kts 302°
2026-05-08 21:55 8.47061 96.52907 29534 ft 501 kts 302°
2026-05-08 21:55 8.48891 96.49851 29705 ft 503 kts 302°
2026-05-08 21:55 8.50705 96.46825 29873 ft 504 kts 302°
2026-05-08 21:56 8.54314 96.40799 30237 ft 505 kts 302°
2026-05-08 21:56 8.56132 96.37761 30409 ft 506 kts 302°
2026-05-08 21:56 8.57951 96.34720 30564 ft 506 kts 302°
2026-05-08 21:56 8.59776 96.31667 30694 ft 507 kts 302°
2026-05-08 21:57 8.61601 96.28615 30819 ft 509 kts 302°
2026-05-08 21:57 8.63432 96.25553 30958 ft 509 kts 302°
2026-05-08 21:57 8.65264 96.22489 31106 ft 509 kts 302°
2026-05-08 21:57 8.67096 96.19425 31269 ft 509 kts 302°
2026-05-08 21:58 8.68922 96.16369 31481 ft 507 kts 302°
2026-05-08 21:58 8.70743 96.13318 31688 ft 506 kts 302°
2026-05-08 21:58 8.72564 96.10270 31774 ft 507 kts 302°
2026-05-08 21:59 8.76209 96.04164 31852 ft 507 kts 301°
2026-05-08 21:59 8.79837 95.98082 31844 ft 504 kts 301°
2026-05-08 22:00 8.83449 95.92017 31857 ft 503 kts 301°
2026-05-08 22:00 8.87056 95.85958 31850 ft 503 kts 301°
2026-05-08 22:01 8.90667 95.79887 31858 ft 504 kts 301°
2026-05-08 22:01 8.94285 95.73802 31850 ft 505 kts 301°
2026-05-08 22:02 8.97909 95.67706 31856 ft 506 kts 301°
2026-05-08 22:02 9.01528 95.61611 31849 ft 506 kts 301°
2026-05-08 22:03 9.05146 95.55515 31846 ft 505 kts 301°
2026-05-08 22:03 9.08158 95.50443 31846 ft 506 kts 301°
2026-05-08 22:04 9.11774 95.44349 31851 ft 505 kts 301°
2026-05-08 22:04 9.15392 95.38246 31852 ft 505 kts 301°
2026-05-08 22:05 9.19008 95.32146 31847 ft 505 kts 301°
2026-05-08 22:05 9.22621 95.26050 31846 ft 505 kts 301°
2026-05-08 22:06 9.26229 95.19956 31859 ft 505 kts 301°
2026-05-08 22:06 9.29839 95.13854 31846 ft 505 kts 301°
2026-05-08 22:07 9.33449 95.07749 31847 ft 505 kts 301°
2026-05-08 22:07 9.37063 95.01640 31852 ft 506 kts 301°
2026-05-08 22:08 9.40674 94.95529 31856 ft 505 kts 301°
2026-05-08 22:08 9.44283 94.89422 31852 ft 505 kts 301°
2026-05-08 22:09 9.47888 94.83312 31848 ft 505 kts 301°
2026-05-08 22:09 9.51496 94.77196 31854 ft 506 kts 301°
2026-05-08 22:10 9.55082 94.71115 31849 ft 506 kts 301°
2026-05-08 22:10 9.58690 94.64992 31853 ft 506 kts 301°
2026-05-08 22:11 9.62298 94.58867 31854 ft 507 kts 301°
2026-05-08 22:11 9.65910 94.52731 31849 ft 507 kts 301°
2026-05-08 22:12 9.69525 94.46591 31855 ft 507 kts 301°
2026-05-08 22:12 9.73746 94.40883 31855 ft 507 kts 312°
2026-05-08 22:13 9.78869 94.35979 31861 ft 507 kts 320°
2026-05-08 22:13 9.84281 94.31395 31853 ft 507 kts 320°
2026-05-08 22:14 9.89695 94.26802 31845 ft 508 kts 320°
2026-05-08 22:14 9.95095 94.22170 31855 ft 508 kts 320°
2026-05-08 22:15 10.00485 94.17522 31850 ft 509 kts 320°
2026-05-08 22:15 10.05891 94.12855 31858 ft 510 kts 320°
2026-05-08 22:16 10.11286 94.08199 31859 ft 509 kts 320°
2026-05-08 22:16 10.16681 94.03541 31864 ft 509 kts 320°
2026-05-08 22:17 10.22038 93.98918 31866 ft 509 kts 320°
2026-05-08 22:17 10.27453 93.94241 31863 ft 508 kts 320°
2026-05-08 22:18 10.32792 93.89622 31856 ft 508 kts 320°
2026-05-08 22:18 10.38169 93.84969 31856 ft 508 kts 320°
2026-05-08 22:19 10.43553 93.80311 31859 ft 508 kts 320°
2026-05-08 22:19 10.48935 93.75652 31856 ft 508 kts 320°
2026-05-08 22:20 10.54311 93.70998 31854 ft 508 kts 320°
2026-05-08 22:20 10.59684 93.66341 31859 ft 507 kts 320°
2026-05-08 22:21 10.65054 93.61686 31866 ft 507 kts 320°
2026-05-08 22:21 10.70421 93.57030 31857 ft 507 kts 320°
2026-05-08 22:22 10.75786 93.52379 31861 ft 507 kts 320°
2026-05-08 22:22 10.81147 93.47722 31861 ft 507 kts 320°
2026-05-08 22:23 10.86504 93.43068 31859 ft 506 kts 320°
2026-05-08 22:23 10.91859 93.38417 31863 ft 506 kts 320°
2026-05-08 22:24 10.97206 93.33765 31865 ft 506 kts 320°
2026-05-08 22:24 11.02548 93.29117 31859 ft 506 kts 320°